JBU1221 KBOS-KPBI

Flight info

Callsign JBU1221
Flight time 2h 47m
Altitude 34000
Route SSOXS7 SSOXS Q167 RIFLE HEADI Q97 KALDA Q131 WAALT Y289 DULEE CLMNT2
Aircraft A321/M-SDE3FGHIRWY/LB1

Departure

Time 2026-05-06 17:53
Airport Boston Logan International Airport (KBOS)

Arrival

Time 2026-05-06 20:41
Airport Palm Beach International Airport (KPBI)
Time Latitude Longitude Altitude Speed Heading
2026-05-06 17:14 42.36863 -71.01596 17 ft 0 kts 151°
2026-05-06 17:38 42.36875 -71.01605 17 ft 2 kts 140°
2026-05-06 17:38 42.36884 -71.01622 17 ft 2 kts 114°
2026-05-06 17:38 42.36888 -71.01642 17 ft 2 kts 90°
2026-05-06 17:39 42.36886 -71.01662 17 ft 2 kts 67°
2026-05-06 17:39 42.36878 -71.01679 17 ft 2 kts 44°
2026-05-06 17:39 42.36868 -71.01689 17 ft 0 kts 28°
2026-05-06 17:39 42.36875 -71.01682 17 ft 3 kts 35°
2026-05-06 17:40 42.36884 -71.01674 17 ft 0 kts 34°
2026-05-06 17:43 42.36900 -71.01660 17 ft 9 kts 33°
2026-05-06 17:43 42.36991 -71.01581 17 ft 17 kts 30°
2026-05-06 17:44 42.37041 -71.01498 16 ft 12 kts 103°
2026-05-06 17:44 42.36990 -71.01411 17 ft 12 kts 135°
2026-05-06 17:44 42.36915 -71.01311 17 ft 16 kts 134°
2026-05-06 17:44 42.36888 -71.01228 17 ft 8 kts 70°
2026-05-06 17:45 42.36956 -71.01138 17 ft 20 kts 40°
2026-05-06 17:45 42.37086 -71.01043 15 ft 21 kts 26°
2026-05-06 17:45 42.37225 -71.00951 14 ft 21 kts 26°
2026-05-06 17:45 42.37364 -71.00871 14 ft 21 kts 19°
2026-05-06 17:46 42.37507 -71.00803 14 ft 23 kts 20°
2026-05-06 17:46 42.37664 -71.00728 14 ft 24 kts 19°
2026-05-06 17:46 42.37807 -71.00658 14 ft 13 kts 20°
2026-05-06 17:46 42.37832 -71.00564 14 ft 11 kts 108°
2026-05-06 17:47 42.37809 -71.00477 14 ft 3 kts 119°
2026-05-06 17:47 42.37779 -71.00478 14 ft 8 kts 196°
2026-05-06 17:47 42.37518 -71.00600 14 ft 73 kts 200°
2026-05-06 17:47 42.37350 -71.00683 14 ft 8 kts 200°
2026-05-06 17:48 42.37294 -71.00713 14 ft 8 kts 200°
2026-05-06 17:48 42.37257 -71.00761 14 ft 8 kts 272°
2026-05-06 17:48 42.37290 -71.00822 14 ft 8 kts 315°
2026-05-06 17:48 42.37329 -71.00872 14 ft 6 kts 328°
2026-05-06 17:49 42.37379 -71.00865 14 ft 8 kts 21°
2026-05-06 17:49 42.37446 -71.00833 14 ft 13 kts 20°
2026-05-06 17:49 42.37539 -71.00787 14 ft 14 kts 21°
2026-05-06 17:49 42.37647 -71.00736 14 ft 17 kts 19°
2026-05-06 17:50 42.37761 -71.00681 14 ft 17 kts 19°
2026-05-06 17:50 42.37837 -71.00616 14 ft 10 kts 73°
2026-05-06 17:50 42.37822 -71.00521 14 ft 8 kts 113°
2026-05-06 17:50 42.37810 -71.00479 14 ft 4 kts 110°
2026-05-06 17:51 42.37792 -71.00470 14 ft 3 kts 196°
2026-05-06 17:51 42.37786 -71.00472 14 ft 0 kts 199°
2026-05-06 17:52 42.37620 -71.00553 14 ft 59 kts 199°
2026-05-06 17:52 42.37022 -71.00842 17 ft 120 kts 200°
2026-05-06 17:53 42.36066 -71.01307 66 ft 165 kts 199°
2026-05-06 17:53 42.34951 -71.01797 547 ft 173 kts 186°
2026-05-06 17:53 42.33834 -71.01357 1338 ft 175 kts 149°
2026-05-06 17:53 42.33017 -71.00182 2032 ft 177 kts 139°
2026-05-06 17:54 42.32231 -70.98806 2350 ft 192 kts 137°
2026-05-06 17:54 42.31407 -70.97257 2660 ft 214 kts 130°
2026-05-06 17:54 42.31079 -70.95122 2879 ft 258 kts 92°
2026-05-06 17:54 42.31402 -70.92664 3239 ft 279 kts 84°
2026-05-06 17:55 42.31851 -70.90024 3616 ft 296 kts 83°
2026-05-06 17:55 42.32303 -70.87278 4207 ft 302 kts 84°
2026-05-06 17:55 42.32733 -70.84477 4899 ft 305 kts 85°
2026-05-06 17:55 42.33113 -70.81687 5577 ft 305 kts 92°
2026-05-06 17:56 42.32962 -70.78903 6238 ft 290 kts 116°
2026-05-06 17:56 42.32223 -70.76430 6936 ft 283 kts 126°
2026-05-06 17:56 42.31359 -70.74042 7579 ft 285 kts 127°
2026-05-06 17:56 42.30492 -70.71648 8305 ft 287 kts 127°
2026-05-06 17:57 42.29512 -70.69337 8948 ft 277 kts 141°
2026-05-06 17:57 42.28089 -70.67826 9541 ft 257 kts 164°
2026-05-06 17:57 42.26442 -70.67012 10167 ft 252 kts 170°
2026-05-06 17:57 42.24732 -70.66260 10453 ft 265 kts 170°
2026-05-06 17:58 42.22921 -70.65456 10725 ft 281 kts 169°
2026-05-06 17:58 42.21032 -70.64607 10989 ft 295 kts 169°
2026-05-06 17:58 42.19022 -70.63691 11268 ft 309 kts 168°
2026-05-06 17:58 42.16972 -70.62750 11757 ft 315 kts 168°
2026-05-06 17:59 42.14857 -70.62066 12272 ft 310 kts 180°
2026-05-06 17:59 42.12734 -70.62126 12770 ft 306 kts 193°
2026-05-06 17:59 42.10674 -70.62834 13307 ft 305 kts 201°
2026-05-06 17:59 42.08623 -70.63719 13833 ft 308 kts 201°
2026-05-06 18:00 42.06589 -70.64611 14332 ft 312 kts 202°
2026-05-06 18:00 42.04503 -70.65527 14773 ft 317 kts 202°
2026-05-06 18:00 42.02391 -70.66456 15288 ft 320 kts 202°
2026-05-06 18:00 42.00238 -70.67399 15776 ft 323 kts 202°
2026-05-06 18:01 41.98091 -70.68342 16198 ft 328 kts 202°
2026-05-06 18:01 41.95912 -70.69296 16644 ft 332 kts 202°
2026-05-06 18:01 41.93697 -70.70267 17100 ft 335 kts 202°
2026-05-06 18:01 41.91463 -70.71246 17539 ft 338 kts 202°
2026-05-06 18:02 41.89230 -70.72222 18002 ft 341 kts 203°
2026-05-06 18:02 41.86950 -70.73215 18435 ft 344 kts 203°
2026-05-06 18:02 41.84706 -70.74335 18885 ft 345 kts 207°
2026-05-06 18:02 41.82511 -70.75653 19339 ft 345 kts 210°
2026-05-06 18:03 41.80400 -70.77142 19787 ft 345 kts 213°
2026-05-06 18:03 41.78273 -70.78735 20219 ft 348 kts 213°
2026-05-06 18:03 41.76154 -70.80317 20609 ft 351 kts 213°
2026-05-06 18:03 41.74035 -70.81900 20985 ft 354 kts 213°
2026-05-06 18:04 41.71862 -70.83529 21367 ft 357 kts 213°
2026-05-06 18:04 41.69709 -70.85139 21759 ft 359 kts 213°
2026-05-06 18:04 41.67500 -70.86793 22130 ft 361 kts 213°
2026-05-06 18:04 41.65319 -70.88425 22498 ft 363 kts 213°
2026-05-06 18:05 41.63090 -70.90093 22826 ft 366 kts 213°
2026-05-06 18:05 41.60865 -70.91753 23169 ft 369 kts 213°
2026-05-06 18:05 41.58612 -70.93435 23523 ft 371 kts 213°
2026-05-06 18:05 41.56417 -70.95297 23836 ft 371 kts 220°
2026-05-06 18:06 41.54487 -70.97551 24196 ft 369 kts 228°
2026-05-06 18:06 41.52813 -71.00172 24533 ft 369 kts 235°
2026-05-06 18:06 41.51371 -71.02961 24881 ft 370 kts 237°
2026-05-06 18:06 41.49921 -71.05832 25202 ft 372 kts 238°
2026-05-06 18:07 41.48486 -71.08694 25534 ft 373 kts 238°
2026-05-06 18:07 41.47034 -71.11584 25677 ft 379 kts 238°
2026-05-06 18:07 41.45556 -71.14533 25919 ft 382 kts 238°
2026-05-06 18:07 41.44070 -71.17494 26221 ft 384 kts 238°
2026-05-06 18:08 41.42585 -71.20449 26523 ft 385 kts 238°
2026-05-06 18:08 41.41095 -71.23405 26786 ft 387 kts 238°
2026-05-06 18:08 41.39595 -71.26382 27097 ft 388 kts 238°
2026-05-06 18:08 41.38090 -71.29363 27385 ft 389 kts 239°
2026-05-06 18:09 41.36569 -71.32375 27631 ft 391 kts 239°
2026-05-06 18:09 41.35051 -71.35387 27908 ft 392 kts 239°
2026-05-06 18:09 41.33539 -71.38387 28155 ft 394 kts 239°
2026-05-06 18:09 41.32003 -71.41430 28434 ft 394 kts 239°
2026-05-06 18:10 41.30486 -71.44435 28696 ft 395 kts 239°
2026-05-06 18:10 41.28930 -71.47505 28927 ft 396 kts 239°
2026-05-06 18:10 41.27401 -71.50520 29248 ft 395 kts 239°
2026-05-06 18:10 41.25874 -71.53526 29607 ft 393 kts 239°
2026-05-06 18:11 41.24339 -71.56548 29926 ft 392 kts 240°
2026-05-06 18:11 41.22817 -71.59537 30236 ft 391 kts 240°
2026-05-06 18:11 41.21302 -71.62524 30549 ft 390 kts 240°
2026-05-06 18:11 41.19770 -71.65528 30842 ft 389 kts 239°
2026-05-06 18:12 41.18276 -71.68465 31189 ft 387 kts 239°
2026-05-06 18:12 41.16766 -71.71433 31562 ft 384 kts 239°
2026-05-06 18:12 41.15276 -71.74349 31919 ft 381 kts 240°
2026-05-06 18:12 41.13798 -71.77250 32216 ft 380 kts 240°
2026-05-06 18:13 41.12323 -71.80159 32443 ft 380 kts 240°
2026-05-06 18:13 41.10849 -71.83064 32669 ft 381 kts 240°
2026-05-06 18:13 41.09362 -71.85980 32880 ft 381 kts 241°
2026-05-06 18:13 41.07883 -71.88885 33064 ft 382 kts 240°
2026-05-06 18:14 41.06391 -71.91811 33271 ft 382 kts 241°
2026-05-06 18:14 41.04946 -71.94732 33472 ft 381 kts 243°
2026-05-06 18:14 41.03603 -71.97759 33683 ft 379 kts 245°
2026-05-06 18:14 41.02380 -72.00826 33883 ft 377 kts 247°
2026-05-06 18:15 41.00138 -72.07090 33882 ft 377 kts 249°
2026-05-06 18:15 40.97906 -72.13353 33878 ft 376 kts 249°
2026-05-06 18:16 40.95684 -72.19623 33885 ft 376 kts 249°
2026-05-06 18:16 40.93208 -72.25707 33897 ft 381 kts 244°
2026-05-06 18:17 40.90252 -72.31573 33892 ft 383 kts 240°
2026-05-06 18:17 40.86867 -72.37052 33886 ft 388 kts 236°
2026-05-06 18:18 40.83090 -72.42184 33877 ft 389 kts 232°
2026-05-06 18:18 40.79127 -72.47153 33874 ft 396 kts 229°
2026-05-06 18:19 40.74893 -72.51790 33865 ft 392 kts 228°
2026-05-06 18:19 40.70775 -72.56450 33884 ft 392 kts 231°
2026-05-06 18:20 40.66985 -72.61558 33876 ft 389 kts 236°
2026-05-06 18:20 40.63535 -72.66993 33889 ft 386 kts 237°
2026-05-06 18:21 40.60102 -72.72465 33878 ft 387 kts 238°
2026-05-06 18:21 40.56679 -72.77924 33880 ft 387 kts 238°
2026-05-06 18:22 40.53285 -72.83328 33885 ft 386 kts 238°
2026-05-06 18:22 40.49851 -72.88787 33871 ft 386 kts 237°
2026-05-06 18:23 40.46443 -72.94192 33865 ft 386 kts 237°
2026-05-06 18:23 40.43021 -72.99610 33876 ft 386 kts 238°
2026-05-06 18:24 40.39578 -73.05051 33867 ft 384 kts 238°
2026-05-06 18:24 40.36156 -73.10444 33871 ft 386 kts 238°
2026-05-06 18:25 40.32751 -73.15812 33866 ft 385 kts 238°
2026-05-06 18:25 40.29337 -73.21178 33872 ft 384 kts 237°
2026-05-06 18:26 40.25916 -73.26547 33864 ft 385 kts 238°
2026-05-06 18:26 40.22479 -73.31936 33867 ft 383 kts 238°
2026-05-06 18:27 40.19071 -73.37256 33870 ft 383 kts 238°
2026-05-06 18:27 40.15649 -73.42612 33864 ft 383 kts 238°
2026-05-06 18:28 40.12250 -73.47897 33865 ft 381 kts 238°
2026-05-06 18:28 40.08834 -73.53207 33867 ft 383 kts 239°
2026-05-06 18:29 40.05421 -73.58511 33866 ft 382 kts 239°
2026-05-06 18:29 40.01983 -73.63771 33864 ft 383 kts 236°
2026-05-06 18:30 39.98107 -73.68630 33860 ft 391 kts 230°
2026-05-06 18:30 39.93690 -73.72905 33871 ft 401 kts 224°
2026-05-06 18:31 39.88749 -73.76469 33861 ft 412 kts 216°
2026-05-06 18:31 39.83445 -73.79373 33869 ft 418 kts 214°
2026-05-06 18:32 39.78107 -73.82218 33858 ft 413 kts 214°
2026-05-06 18:32 39.72778 -73.85054 33877 ft 416 kts 214°
2026-05-06 18:33 39.67432 -73.87894 33875 ft 415 kts 214°
2026-05-06 18:33 39.62087 -73.90730 33885 ft 416 kts 214°
2026-05-06 18:34 39.56741 -73.93558 33879 ft 416 kts 214°
2026-05-06 18:34 39.51380 -73.96391 33879 ft 416 kts 214°
2026-05-06 18:35 39.46102 -73.99378 33881 ft 408 kts 218°
2026-05-06 18:35 39.41164 -74.02914 33869 ft 403 kts 223°
2026-05-06 18:36 39.36611 -74.06977 33877 ft 396 kts 228°
2026-05-06 18:36 39.32408 -74.11443 33878 ft 392 kts 230°
2026-05-06 18:37 39.28229 -74.15975 33883 ft 393 kts 231°
2026-05-06 18:37 39.24064 -74.20503 33882 ft 391 kts 231°
2026-05-06 18:38 39.19897 -74.25030 33881 ft 393 kts 231°
2026-05-06 18:38 39.15713 -74.29567 33883 ft 394 kts 230°
2026-05-06 18:39 39.11537 -74.34092 33881 ft 391 kts 230°
2026-05-06 18:40 39.05264 -74.40873 33888 ft 393 kts 231°
2026-05-06 18:40 39.01103 -74.45366 33884 ft 392 kts 231°
2026-05-06 18:41 38.96905 -74.49883 33883 ft 392 kts 231°
2026-05-06 18:41 38.92799 -74.54445 33890 ft 387 kts 232°
2026-05-06 18:42 38.88812 -74.59119 33887 ft 390 kts 233°
2026-05-06 18:42 38.84799 -74.63773 33892 ft 390 kts 232°
2026-05-06 18:43 38.80764 -74.68488 33892 ft 390 kts 232°
2026-05-06 18:43 38.76786 -74.73142 33892 ft 390 kts 231°
2026-05-06 18:44 38.72632 -74.77665 33897 ft 394 kts 229°
2026-05-06 18:44 38.68378 -74.82112 33895 ft 396 kts 229°
2026-05-06 18:45 38.64127 -74.86549 33896 ft 395 kts 229°
2026-05-06 18:45 38.59847 -74.91002 33901 ft 397 kts 228°
2026-05-06 18:46 38.55537 -74.95474 33899 ft 396 kts 228°
2026-05-06 18:46 38.51341 -74.99973 33893 ft 393 kts 230°
2026-05-06 18:47 38.47187 -75.04550 33893 ft 396 kts 228°
2026-05-06 18:47 38.42797 -75.08823 33903 ft 399 kts 226°
2026-05-06 18:48 38.38367 -75.13048 33915 ft 398 kts 226°
2026-05-06 18:48 38.33936 -75.17260 33919 ft 399 kts 226°
2026-05-06 18:49 38.29462 -75.21507 33917 ft 401 kts 226°
2026-05-06 18:49 38.24973 -75.25768 33913 ft 400 kts 226°
2026-05-06 18:50 38.20471 -75.30012 33918 ft 401 kts 226°
2026-05-06 18:50 38.16009 -75.34225 33914 ft 402 kts 225°
2026-05-06 18:51 38.11516 -75.38453 33914 ft 399 kts 225°
2026-05-06 18:51 38.07061 -75.42637 33910 ft 402 kts 225°
2026-05-06 18:52 38.02500 -75.46800 33921 ft 403 kts 223°
2026-05-06 18:52 37.97827 -75.50841 33922 ft 405 kts 223°
2026-05-06 18:53 37.93191 -75.54858 33918 ft 405 kts 224°
2026-05-06 18:53 37.88551 -75.58890 33919 ft 405 kts 223°
2026-05-06 18:54 37.83723 -75.62640 33908 ft 412 kts 218°
2026-05-06 18:54 37.78509 -75.65861 33922 ft 418 kts 214°
2026-05-06 18:55 37.73231 -75.68902 33924 ft 416 kts 213°
2026-05-06 18:55 37.67944 -75.71925 33928 ft 420 kts 214°
2026-05-06 18:56 37.62604 -75.74964 33922 ft 420 kts 213°
2026-05-06 18:56 37.57290 -75.77978 33918 ft 422 kts 213°
2026-05-06 18:57 37.51927 -75.81013 33920 ft 421 kts 214°
2026-05-06 18:57 37.46585 -75.84032 33913 ft 420 kts 214°
2026-05-06 18:58 37.41262 -75.87037 33910 ft 420 kts 213°
2026-05-06 18:58 37.35875 -75.90071 33904 ft 421 kts 213°
2026-05-06 18:59 37.30526 -75.93082 33909 ft 423 kts 213°
2026-05-06 18:59 37.25126 -75.96104 33912 ft 424 kts 213°
2026-05-06 19:00 37.19733 -75.99126 33918 ft 422 kts 213°
2026-05-06 19:00 37.14367 -76.02124 33908 ft 423 kts 213°
2026-05-06 19:01 37.09150 -76.05444 33929 ft 415 kts 218°
2026-05-06 19:01 37.04091 -76.08939 33933 ft 418 kts 218°
2026-05-06 19:02 36.98974 -76.12469 33937 ft 417 kts 218°
2026-05-06 19:02 36.93875 -76.15985 33939 ft 421 kts 218°
2026-05-06 19:03 36.88765 -76.19498 33949 ft 421 kts 218°
2026-05-06 19:03 36.83628 -76.23002 33955 ft 421 kts 218°
2026-05-06 19:04 36.78493 -76.26510 33953 ft 421 kts 218°
2026-05-06 19:04 36.73341 -76.30029 33953 ft 422 kts 218°
2026-05-06 19:05 36.68179 -76.33556 33956 ft 425 kts 218°
2026-05-06 19:05 36.63015 -76.37088 33955 ft 423 kts 218°
2026-05-06 19:06 36.57842 -76.40608 33961 ft 425 kts 218°
2026-05-06 19:06 36.52657 -76.44135 33953 ft 424 kts 218°
2026-05-06 19:07 36.47492 -76.47647 33956 ft 427 kts 218°
2026-05-06 19:07 36.42263 -76.51201 33941 ft 425 kts 217°
2026-05-06 19:08 36.37090 -76.54700 33943 ft 423 kts 218°
2026-05-06 19:08 36.31884 -76.58227 33938 ft 425 kts 217°
2026-05-06 19:09 36.26703 -76.61718 33940 ft 425 kts 218°
2026-05-06 19:09 36.21502 -76.65231 33946 ft 426 kts 217°
2026-05-06 19:10 36.16266 -76.68778 33946 ft 429 kts 217°
2026-05-06 19:10 36.11017 -76.72318 33947 ft 428 kts 217°
2026-05-06 19:11 36.05813 -76.75815 33956 ft 426 kts 217°
2026-05-06 19:11 36.00602 -76.79305 33947 ft 425 kts 217°
2026-05-06 19:12 35.95379 -76.82790 33954 ft 426 kts 217°
2026-05-06 19:12 35.90140 -76.86279 33951 ft 429 kts 216°
2026-05-06 19:13 35.84795 -76.89580 33947 ft 432 kts 215°
2026-05-06 19:13 35.79408 -76.92865 33960 ft 431 kts 214°
2026-05-06 19:14 35.74073 -76.96134 33963 ft 431 kts 215°
2026-05-06 19:14 35.68680 -76.99448 33973 ft 433 kts 214°
2026-05-06 19:15 35.63275 -77.02758 33970 ft 432 kts 215°
2026-05-06 19:15 35.57904 -77.06047 33971 ft 433 kts 215°
2026-05-06 19:16 35.52517 -77.09347 33977 ft 433 kts 214°
2026-05-06 19:16 35.47150 -77.12620 33971 ft 431 kts 215°
2026-05-06 19:17 35.41762 -77.15907 33968 ft 433 kts 214°
2026-05-06 19:17 35.36308 -77.19226 33969 ft 434 kts 215°
2026-05-06 19:18 35.30875 -77.22530 33972 ft 435 kts 215°
2026-05-06 19:18 35.25428 -77.25838 33974 ft 436 kts 215°
2026-05-06 19:19 35.19977 -77.29142 33978 ft 436 kts 215°
2026-05-06 19:19 35.14562 -77.32417 33981 ft 433 kts 215°
2026-05-06 19:20 35.09114 -77.35716 33977 ft 437 kts 214°
2026-05-06 19:20 35.03669 -77.39002 33978 ft 437 kts 214°
2026-05-06 19:21 34.98179 -77.42305 33987 ft 439 kts 215°
2026-05-06 19:21 34.92720 -77.45589 33987 ft 437 kts 215°
2026-05-06 19:22 34.87237 -77.48877 33995 ft 437 kts 215°
2026-05-06 19:22 34.81746 -77.52146 33991 ft 437 kts 215°
2026-05-06 19:23 34.76298 -77.55409 34002 ft 436 kts 215°
2026-05-06 19:23 34.70813 -77.58686 33990 ft 439 kts 216°
2026-05-06 19:24 34.65333 -77.61962 33995 ft 439 kts 216°
2026-05-06 19:24 34.59781 -77.65160 33991 ft 442 kts 212°
2026-05-06 19:25 34.53936 -77.67772 33993 ft 452 kts 206°
2026-05-06 19:25 34.47806 -77.69621 33986 ft 455 kts 201°
2026-05-06 19:26 34.41560 -77.71210 33988 ft 457 kts 201°
2026-05-06 19:26 34.35285 -77.72807 34002 ft 459 kts 200°
2026-05-06 19:27 34.29034 -77.74394 33995 ft 461 kts 201°
2026-05-06 19:27 34.22741 -77.75989 34001 ft 460 kts 201°
2026-05-06 19:28 34.16475 -77.77573 33997 ft 460 kts 201°
2026-05-06 19:28 34.10208 -77.79158 34001 ft 460 kts 201°
2026-05-06 19:29 34.03897 -77.80754 34096 ft 463 kts 201°
2026-05-06 19:29 34.00709 -77.81557 34248 ft 465 kts 201°
2026-05-06 19:29 33.97538 -77.82355 34534 ft 464 kts 201°
2026-05-06 19:29 33.94403 -77.83140 34735 ft 465 kts 201°
2026-05-06 19:30 33.91208 -77.83939 34991 ft 464 kts 202°
2026-05-06 19:30 33.88050 -77.84729 35208 ft 464 kts 202°
2026-05-06 19:30 33.84881 -77.85517 35390 ft 464 kts 202°
2026-05-06 19:30 33.81719 -77.86306 35568 ft 464 kts 202°
2026-05-06 19:31 33.78595 -77.87167 35807 ft 459 kts 206°
2026-05-06 19:31 33.75551 -77.88174 36006 ft 456 kts 207°
2026-05-06 19:31 33.69400 -77.90276 36029 ft 459 kts 207°
2026-05-06 19:32 33.63250 -77.92364 36031 ft 457 kts 207°
2026-05-06 19:32 33.57169 -77.94426 36024 ft 456 kts 207°
2026-05-06 19:33 33.51000 -77.96516 36035 ft 460 kts 207°
2026-05-06 19:33 33.44825 -77.98614 36039 ft 461 kts 207°
2026-05-06 19:34 33.38611 -78.00710 36041 ft 459 kts 207°
2026-05-06 19:34 33.32423 -78.02797 36049 ft 462 kts 207°
2026-05-06 19:35 33.26268 -78.04864 36043 ft 461 kts 207°
2026-05-06 19:35 33.20060 -78.06953 36046 ft 460 kts 207°
2026-05-06 19:36 33.13919 -78.09010 36049 ft 460 kts 207°
2026-05-06 19:36 33.07724 -78.11090 36052 ft 463 kts 207°
2026-05-06 19:37 33.01512 -78.13167 36051 ft 462 kts 207°
2026-05-06 19:37 32.95357 -78.15218 36051 ft 461 kts 207°
2026-05-06 19:38 32.89146 -78.17289 36044 ft 462 kts 207°
2026-05-06 19:38 32.82943 -78.19339 36041 ft 464 kts 207°
2026-05-06 19:39 32.76739 -78.21390 36040 ft 460 kts 207°
2026-05-06 19:39 32.70573 -78.23439 36043 ft 462 kts 207°
2026-05-06 19:40 32.64381 -78.25494 36042 ft 461 kts 207°
2026-05-06 19:40 32.58183 -78.27548 36042 ft 461 kts 207°
2026-05-06 19:41 32.52029 -78.29582 36047 ft 462 kts 207°
2026-05-06 19:41 32.45839 -78.31625 36041 ft 461 kts 207°
2026-05-06 19:42 32.39650 -78.33663 36048 ft 460 kts 207°
2026-05-06 19:42 32.33474 -78.35699 36050 ft 462 kts 207°
2026-05-06 19:43 32.27287 -78.37735 36045 ft 459 kts 207°
2026-05-06 19:43 32.21144 -78.39754 36052 ft 461 kts 207°
2026-05-06 19:44 32.14935 -78.41792 36056 ft 462 kts 207°
2026-05-06 19:44 32.08736 -78.43823 36058 ft 464 kts 207°
2026-05-06 19:45 32.02518 -78.45852 36059 ft 462 kts 207°
2026-05-06 19:45 31.96322 -78.47877 36059 ft 463 kts 207°
2026-05-06 19:46 31.90121 -78.49898 36062 ft 461 kts 207°
2026-05-06 19:46 31.83953 -78.51891 36063 ft 460 kts 207°
2026-05-06 19:47 31.77776 -78.53890 36063 ft 461 kts 206°
2026-05-06 19:47 31.71553 -78.55909 36066 ft 462 kts 207°
2026-05-06 19:48 31.65359 -78.57916 36066 ft 461 kts 206°
2026-05-06 19:48 31.59171 -78.59921 36067 ft 461 kts 206°
2026-05-06 19:49 31.52995 -78.61932 36067 ft 462 kts 207°
2026-05-06 19:49 31.46830 -78.64043 36068 ft 461 kts 207°
2026-05-06 19:50 31.40684 -78.66171 36067 ft 461 kts 207°
2026-05-06 19:50 31.34512 -78.68314 36069 ft 461 kts 207°
2026-05-06 19:51 31.28377 -78.70421 36067 ft 461 kts 207°
2026-05-06 19:51 31.22234 -78.72521 36069 ft 460 kts 206°
2026-05-06 19:52 31.16075 -78.74619 36068 ft 460 kts 207°
2026-05-06 19:52 31.09912 -78.76717 36065 ft 461 kts 207°
2026-05-06 19:53 31.03753 -78.78809 36070 ft 460 kts 207°
2026-05-06 19:53 30.97599 -78.80897 36071 ft 460 kts 206°
2026-05-06 19:54 30.91451 -78.82980 36063 ft 460 kts 206°
2026-05-06 19:54 30.85222 -78.85078 36065 ft 462 kts 206°
2026-05-06 19:55 30.79069 -78.87144 36063 ft 461 kts 206°
2026-05-06 19:55 30.72891 -78.89224 36063 ft 462 kts 206°
2026-05-06 19:56 30.66703 -78.91305 36062 ft 459 kts 206°
2026-05-06 19:56 30.60568 -78.93371 36060 ft 460 kts 206°
2026-05-06 19:57 30.54391 -78.95446 36062 ft 462 kts 206°
2026-05-06 19:57 30.48170 -78.97530 36065 ft 462 kts 206°
2026-05-06 19:58 30.41947 -78.99573 36061 ft 465 kts 204°
2026-05-06 19:58 30.35602 -79.01269 36062 ft 467 kts 202°
2026-05-06 19:59 30.29277 -79.02918 36062 ft 467 kts 202°
2026-05-06 19:59 30.22914 -79.04581 36059 ft 466 kts 202°
2026-05-06 20:00 30.16549 -79.06251 36062 ft 467 kts 202°
2026-05-06 20:00 30.10241 -79.07901 36062 ft 467 kts 202°
2026-05-06 20:01 30.03839 -79.09571 36061 ft 466 kts 202°
2026-05-06 20:01 29.97509 -79.11221 36061 ft 468 kts 202°
2026-05-06 20:02 29.91157 -79.12867 36058 ft 468 kts 202°
2026-05-06 20:02 29.84766 -79.14516 36055 ft 468 kts 202°
2026-05-06 20:03 29.78354 -79.16163 36057 ft 469 kts 202°
2026-05-06 20:03 29.71972 -79.17794 36055 ft 469 kts 202°
2026-05-06 20:04 29.65559 -79.19429 36051 ft 468 kts 201°
2026-05-06 20:04 29.59179 -79.21053 36058 ft 468 kts 201°
2026-05-06 20:05 29.52801 -79.22675 36056 ft 469 kts 201°
2026-05-06 20:05 29.46423 -79.24294 36057 ft 469 kts 201°
2026-05-06 20:06 29.40029 -79.25916 36056 ft 469 kts 201°
2026-05-06 20:06 29.33679 -79.27523 36055 ft 469 kts 201°
2026-05-06 20:07 29.27294 -79.29142 36056 ft 469 kts 201°
2026-05-06 20:07 29.20954 -79.30743 36058 ft 468 kts 201°
2026-05-06 20:08 29.14559 -79.32357 36058 ft 468 kts 201°
2026-05-06 20:08 29.08172 -79.33968 36060 ft 468 kts 201°
2026-05-06 20:09 29.01767 -79.35580 36062 ft 468 kts 201°
2026-05-06 20:09 28.95422 -79.37174 36059 ft 467 kts 201°
2026-05-06 20:10 28.89038 -79.38779 36059 ft 468 kts 201°
2026-05-06 20:10 28.82690 -79.40360 36062 ft 469 kts 200°
2026-05-06 20:11 28.76306 -79.41951 36064 ft 469 kts 200°
2026-05-06 20:11 28.69935 -79.43542 36063 ft 468 kts 200°
2026-05-06 20:12 28.63536 -79.45141 35842 ft 469 kts 200°
2026-05-06 20:12 28.60379 -79.45927 35561 ft 466 kts 200°
2026-05-06 20:12 28.57196 -79.46719 35275 ft 464 kts 200°
2026-05-06 20:13 28.54066 -79.47499 34992 ft 461 kts 200°
2026-05-06 20:13 28.50904 -79.48288 34654 ft 461 kts 200°
2026-05-06 20:13 28.47799 -79.49062 34157 ft 462 kts 200°
2026-05-06 20:13 28.44620 -79.49857 33492 ft 464 kts 200°
2026-05-06 20:14 28.41487 -79.50637 32800 ft 464 kts 200°
2026-05-06 20:14 28.38326 -79.51424 32108 ft 466 kts 200°
2026-05-06 20:14 28.35156 -79.52213 31371 ft 469 kts 200°
2026-05-06 20:14 28.31976 -79.53003 30609 ft 472 kts 199°
2026-05-06 20:15 28.28755 -79.53818 29805 ft 474 kts 200°
2026-05-06 20:15 28.25525 -79.54692 28935 ft 478 kts 200°
2026-05-06 20:15 28.22302 -79.55582 28125 ft 480 kts 200°
2026-05-06 20:15 28.19067 -79.56475 27553 ft 476 kts 200°
2026-05-06 20:16 28.15861 -79.57352 26979 ft 472 kts 199°
2026-05-06 20:16 28.12664 -79.58223 26398 ft 469 kts 199°
2026-05-06 20:16 28.09485 -79.59087 25833 ft 465 kts 199°
2026-05-06 20:16 28.06388 -79.59928 25276 ft 461 kts 199°
2026-05-06 20:17 28.03273 -79.60774 24725 ft 458 kts 199°
2026-05-06 20:17 28.00159 -79.61620 24240 ft 452 kts 199°
2026-05-06 20:17 27.97145 -79.62434 23995 ft 442 kts 199°
2026-05-06 20:17 27.94126 -79.63253 23268 ft 445 kts 198°
2026-05-06 20:18 27.91137 -79.64068 22534 ft 447 kts 198°
2026-05-06 20:18 27.88101 -79.64891 21863 ft 448 kts 198°
2026-05-06 20:18 27.85070 -79.65714 21191 ft 448 kts 197°
2026-05-06 20:18 27.82037 -79.66546 20516 ft 449 kts 197°
2026-05-06 20:19 27.78990 -79.67378 19841 ft 450 kts 197°
2026-05-06 20:19 27.75947 -79.68203 19166 ft 450 kts 196°
2026-05-06 20:19 27.72918 -79.69021 18509 ft 449 kts 196°
2026-05-06 20:19 27.69901 -79.69833 18082 ft 443 kts 196°
2026-05-06 20:20 27.66884 -79.70644 17660 ft 436 kts 195°
2026-05-06 20:20 27.63986 -79.71423 17254 ft 430 kts 195°
2026-05-06 20:20 27.61078 -79.72208 16775 ft 427 kts 195°
2026-05-06 20:20 27.58177 -79.72996 16259 ft 424 kts 195°
2026-05-06 20:21 27.55341 -79.73762 15755 ft 422 kts 195°
2026-05-06 20:21 27.52490 -79.74531 15254 ft 419 kts 195°
2026-05-06 20:21 27.49661 -79.75292 14750 ft 416 kts 194°
2026-05-06 20:21 27.46863 -79.76044 14269 ft 413 kts 194°
2026-05-06 20:22 27.44053 -79.76798 13749 ft 411 kts 194°
2026-05-06 20:22 27.41266 -79.77545 13249 ft 409 kts 194°
2026-05-06 20:22 27.38511 -79.78282 12780 ft 406 kts 194°
2026-05-06 20:22 27.35744 -79.79021 12315 ft 402 kts 193°
2026-05-06 20:23 27.33029 -79.79746 11866 ft 398 kts 193°
2026-05-06 20:23 27.30352 -79.80461 11478 ft 393 kts 193°
2026-05-06 20:23 27.27721 -79.81163 11142 ft 386 kts 193°
2026-05-06 20:23 27.25121 -79.81857 10810 ft 379 kts 193°
2026-05-06 20:24 27.22537 -79.82554 10452 ft 374 kts 195°
2026-05-06 20:24 27.20109 -79.83500 10094 ft 368 kts 204°
2026-05-06 20:24 27.17813 -79.84782 9759 ft 363 kts 208°
2026-05-06 20:24 27.15620 -79.86104 9428 ft 357 kts 209°
2026-05-06 20:25 27.13438 -79.87431 9097 ft 352 kts 209°
2026-05-06 20:25 27.11288 -79.88729 8776 ft 347 kts 208°
2026-05-06 20:25 27.09179 -79.89992 8465 ft 342 kts 208°
2026-05-06 20:25 27.07071 -79.91250 8162 ft 337 kts 208°
2026-05-06 20:26 27.05029 -79.92464 7866 ft 333 kts 208°
2026-05-06 20:26 27.02992 -79.93675 7569 ft 328 kts 208°
2026-05-06 20:26 27.00974 -79.94874 7273 ft 323 kts 208°
2026-05-06 20:26 26.98997 -79.96049 6982 ft 319 kts 208°
2026-05-06 20:27 26.97070 -79.97192 6717 ft 314 kts 208°
2026-05-06 20:27 26.95184 -79.98408 6442 ft 310 kts 213°
2026-05-06 20:27 26.93442 -79.99799 6072 ft 299 kts 218°
2026-05-06 20:27 26.91830 -80.01189 5698 ft 288 kts 218°
2026-05-06 20:28 26.90258 -80.02556 5320 ft 283 kts 218°
2026-05-06 20:28 26.88704 -80.03898 4975 ft 282 kts 218°
2026-05-06 20:28 26.87150 -80.05229 4652 ft 280 kts 218°
2026-05-06 20:28 26.85604 -80.06553 4354 ft 277 kts 218°
2026-05-06 20:29 26.84069 -80.07872 4082 ft 275 kts 218°
2026-05-06 20:29 26.82554 -80.09187 3979 ft 272 kts 218°
2026-05-06 20:29 26.81135 -80.10502 3949 ft 258 kts 228°
2026-05-06 20:29 26.80373 -80.12227 3944 ft 244 kts 262°
2026-05-06 20:30 26.80232 -80.14114 3967 ft 244 kts 269°
2026-05-06 20:30 26.80102 -80.17921 3965 ft 245 kts 268°
2026-05-06 20:30 26.79997 -80.19830 3972 ft 246 kts 267°
2026-05-06 20:31 26.79854 -80.21719 3963 ft 246 kts 265°
2026-05-06 20:31 26.79678 -80.23642 3972 ft 246 kts 265°
2026-05-06 20:31 26.79497 -80.25549 3963 ft 246 kts 265°
2026-05-06 20:31 26.79316 -80.27444 3959 ft 246 kts 265°
2026-05-06 20:32 26.79136 -80.29336 3957 ft 245 kts 265°
2026-05-06 20:32 26.78955 -80.31240 3959 ft 246 kts 265°
2026-05-06 20:32 26.78775 -80.33143 3957 ft 246 kts 265°
2026-05-06 20:32 26.78596 -80.35046 3954 ft 246 kts 265°
2026-05-06 20:33 26.78416 -80.36943 3839 ft 247 kts 264°
2026-05-06 20:33 26.77930 -80.38782 3648 ft 245 kts 237°
2026-05-06 20:33 26.76713 -80.40070 3466 ft 243 kts 206°
2026-05-06 20:33 26.75088 -80.40494 3221 ft 239 kts 180°
2026-05-06 20:34 26.73445 -80.40421 3002 ft 236 kts 174°
2026-05-06 20:34 26.71852 -80.40085 2928 ft 223 kts 152°
2026-05-06 20:34 26.70700 -80.39014 2948 ft 217 kts 126°
2026-05-06 20:34 26.69937 -80.37567 2981 ft 214 kts 112°
2026-05-06 20:35 26.69506 -80.36042 3006 ft 196 kts 101°
2026-05-06 20:35 26.69337 -80.34609 2954 ft 180 kts 93°
2026-05-06 20:35 26.69280 -80.33291 2957 ft 161 kts 91°
2026-05-06 20:35 26.69243 -80.32058 2937 ft 154 kts 91°
2026-05-06 20:36 26.69203 -80.30881 2937 ft 151 kts 91°
2026-05-06 20:36 26.69159 -80.29699 2941 ft 151 kts 91°
2026-05-06 20:36 26.69110 -80.28532 2934 ft 151 kts 91°
2026-05-06 20:36 26.69059 -80.27352 2794 ft 151 kts 91°
2026-05-06 20:37 26.69006 -80.26179 2604 ft 150 kts 91°
2026-05-06 20:37 26.68953 -80.25011 2412 ft 148 kts 92°
2026-05-06 20:37 26.68901 -80.23865 2221 ft 148 kts 92°
2026-05-06 20:37 26.68849 -80.22717 2035 ft 147 kts 92°
2026-05-06 20:38 26.68798 -80.21570 1852 ft 146 kts 92°
2026-05-06 20:38 26.68746 -80.20434 1664 ft 147 kts 92°
2026-05-06 20:38 26.68693 -80.19295 1480 ft 146 kts 92°
2026-05-06 20:38 26.68643 -80.18162 1297 ft 146 kts 91°
2026-05-06 20:39 26.68594 -80.17028 1115 ft 145 kts 92°
2026-05-06 20:39 26.68543 -80.15916 934 ft 144 kts 92°
2026-05-06 20:39 26.68488 -80.14789 768 ft 143 kts 92°
2026-05-06 20:39 26.68444 -80.13683 615 ft 142 kts 91°
2026-05-06 20:40 26.68405 -80.12590 432 ft 142 kts 92°
2026-05-06 20:40 26.68350 -80.11490 211 ft 140 kts 92°
2026-05-06 20:40 26.68304 -80.10408 49 ft 139 kts 92°
2026-05-06 20:40 26.68259 -80.09386 19 ft 120 kts 94°
2026-05-06 20:41 26.68226 -80.08639 18 ft 70 kts 93°
2026-05-06 20:41 26.68209 -80.08280 18 ft 27 kts 93°
2026-05-06 20:41 26.68247 -80.08160 18 ft 15 kts 11°
2026-05-06 20:41 26.68314 -80.08186 18 ft 9 kts 276°
2026-05-06 20:42 26.68320 -80.08273 18 ft 13 kts 273°
2026-05-06 20:42 26.68325 -80.08385 18 ft 14 kts 272°
2026-05-06 20:42 26.68331 -80.08524 18 ft 21 kts 272°
2026-05-06 20:42 26.68338 -80.08692 18 ft 21 kts 272°
2026-05-06 20:43 26.68348 -80.08825 18 ft 7 kts 299°
2026-05-06 20:43 26.68401 -80.08839 18 ft 8 kts
2026-05-06 20:43 26.68432 -80.08846 18 ft 0 kts 314°
2026-05-06 20:44 26.68442 -80.08890 18 ft 9 kts 275°
2026-05-06 20:44 26.68446 -80.08966 18 ft 10 kts 273°
2026-05-06 20:44 26.68460 -80.08995 18 ft 4 kts 350°
2026-05-06 20:45 26.68494 -80.08983 18 ft 5 kts 26°
2026-05-06 20:45 26.68517 -80.08970 18 ft 0 kts 27°
2026-05-06 20:45 26.68522 -80.08968 18 ft 0 kts 27°